Year,Month,Day,Hour,Minute,Value (Times are PST for windspeed in km/hr)
2008,02,07,00,00,9.80
2008,02,07,00,01,11.40
2008,02,07,00,02,8.00
2008,02,07,00,03,9.20
2008,02,07,00,04,9.70
2008,02,07,00,05,10.70
2008,02,07,00,06,8.30
2008,02,07,00,07,10.80
2008,02,07,00,08,9.60
2008,02,07,00,09,11.80
2008,02,07,00,10,5.50
2008,02,07,00,11,10.60
2008,02,07,00,12,11.40
2008,02,07,00,13,9.60
2008,02,07,00,14,12.40
2008,02,07,00,15,10.60
2008,02,07,00,16,11.50
2008,02,07,00,17,13.60
2008,02,07,00,18,11.10
2008,02,07,00,19,12.60
2008,02,07,00,20,7.50
2008,02,07,00,21,10.40
2008,02,07,00,22,7.30
2008,02,07,00,23,8.70
2008,02,07,00,24,8.30
2008,02,07,00,25,6.90
2008,02,07,00,26,12.60
2008,02,07,00,27,9.40
2008,02,07,00,28,3.00
2008,02,07,00,29,1.80
2008,02,07,00,30,5.00
2008,02,07,00,31,6.00
2008,02,07,00,32,7.80
2008,02,07,00,33,10.60
2008,02,07,00,34,12.50
2008,02,07,00,35,7.80
2008,02,07,00,36,4.10
2008,02,07,00,37,5.50
2008,02,07,00,38,6.10
2008,02,07,00,39,8.10
2008,02,07,00,40,7.80
2008,02,07,00,41,6.10
2008,02,07,00,42,2.50
2008,02,07,00,43,3.20
2008,02,07,00,44,6.30
2008,02,07,00,45,6.20
2008,02,07,00,46,8.70
2008,02,07,00,47,2.90
2008,02,07,00,48,2.80
2008,02,07,00,49,2.60
2008,02,07,00,50,0.70
2008,02,07,00,51,2.00
2008,02,07,00,52,0.60
2008,02,07,00,53,1.10
2008,02,07,00,54,2.50
2008,02,07,00,55,7.90
2008,02,07,00,56,9.80
2008,02,07,00,57,6.80
2008,02,07,00,58,4.90
2008,02,07,00,59,4.00
2008,02,07,01,00,9.50
2008,02,07,01,01,12.50
2008,02,07,01,02,9.60
2008,02,07,01,03,5.00
2008,02,07,01,04,7.40
2008,02,07,01,05,8.20
2008,02,07,01,06,7.10
2008,02,07,01,07,5.30
2008,02,07,01,08,5.40
2008,02,07,01,09,6.50
2008,02,07,01,10,6.90
2008,02,07,01,11,17.90
2008,02,07,01,12,15.30
2008,02,07,01,13,9.10
2008,02,07,01,14,8.10
2008,02,07,01,15,8.40
2008,02,07,01,16,10.10
2008,02,07,01,17,8.50
2008,02,07,01,18,4.00
2008,02,07,01,19,0.80
2008,02,07,01,20,3.20
2008,02,07,01,21,5.10
2008,02,07,01,22,2.50
2008,02,07,01,23,1.30
2008,02,07,01,24,2.10
2008,02,07,01,25,2.50
2008,02,07,01,26,9.80
2008,02,07,01,27,5.70
2008,02,07,01,28,7.40
2008,02,07,01,29,8.70
2008,02,07,01,30,6.80
2008,02,07,01,31,6.70
2008,02,07,01,32,6.70
2008,02,07,01,33,9.60
2008,02,07,01,34,9.40
2008,02,07,01,35,8.40
2008,02,07,01,36,10.50
2008,02,07,01,37,4.20
2008,02,07,01,38,1.90
2008,02,07,01,39,7.10
2008,02,07,01,40,5.50
2008,02,07,01,41,10.40
2008,02,07,01,42,9.00
2008,02,07,01,43,10.80
2008,02,07,01,44,3.70
2008,02,07,01,45,6.00
2008,02,07,01,46,6.00
2008,02,07,01,47,3.40
2008,02,07,01,48,4.60
2008,02,07,01,49,6.40
2008,02,07,01,50,8.80
2008,02,07,01,51,8.30
2008,02,07,01,52,8.80
2008,02,07,01,53,7.50
2008,02,07,01,54,6.40
2008,02,07,01,55,7.20
2008,02,07,01,56,7.00
2008,02,07,01,57,8.70
2008,02,07,01,58,9.40
2008,02,07,01,59,6.10
2008,02,07,02,00,2.80
2008,02,07,02,01,5.30
2008,02,07,02,02,6.30
2008,02,07,02,03,6.10
2008,02,07,02,04,7.00
2008,02,07,02,05,12.60
2008,02,07,02,06,11.90
2008,02,07,02,07,6.30
2008,02,07,02,08,7.20
2008,02,07,02,09,8.10
2008,02,07,02,10,10.50
2008,02,07,02,11,7.90
2008,02,07,02,12,4.30
2008,02,07,02,13,7.30
2008,02,07,02,14,8.90
2008,02,07,02,15,7.90
2008,02,07,02,16,6.80
2008,02,07,02,17,8.20
2008,02,07,02,18,8.50
2008,02,07,02,19,6.40
2008,02,07,02,20,4.80
2008,02,07,02,21,4.20
2008,02,07,02,22,3.70
2008,02,07,02,23,3.10
2008,02,07,02,24,4.90
2008,02,07,02,25,6.00
2008,02,07,02,26,5.10
2008,02,07,02,27,6.40
2008,02,07,02,28,9.20
2008,02,07,02,29,7.50
2008,02,07,02,30,2.80
2008,02,07,02,31,4.80
2008,02,07,02,32,6.30
2008,02,07,02,33,2.80
2008,02,07,02,34,1.50
2008,02,07,02,35,0.60
2008,02,07,02,36,1.20
2008,02,07,02,37,6.70
2008,02,07,02,38,6.70
2008,02,07,02,39,6.40
2008,02,07,02,40,4.30
2008,02,07,02,41,4.60
2008,02,07,02,42,3.50
2008,02,07,02,43,5.60
2008,02,07,02,44,5.60
2008,02,07,02,45,4.10
2008,02,07,02,46,7.10
2008,02,07,02,47,3.30
2008,02,07,02,48,4.40
2008,02,07,02,49,8.80
2008,02,07,02,50,7.50
2008,02,07,02,51,5.90
2008,02,07,02,52,2.50
2008,02,07,02,53,3.60
2008,02,07,02,54,4.10
2008,02,07,02,55,0.60
2008,02,07,02,56,1.60
2008,02,07,02,57,2.90
2008,02,07,02,58,3.30
2008,02,07,02,59,6.40
2008,02,07,03,00,6.50
2008,02,07,03,01,4.40
2008,02,07,03,02,5.60
2008,02,07,03,03,4.00
2008,02,07,03,04,3.30
2008,02,07,03,05,3.40
2008,02,07,03,06,2.60
2008,02,07,03,07,0.90
2008,02,07,03,08,0.30
2008,02,07,03,09,2.90
2008,02,07,03,10,4.90
2008,02,07,03,11,5.70
2008,02,07,03,12,4.50
2008,02,07,03,13,5.60
2008,02,07,03,14,3.40
2008,02,07,03,15,3.10
2008,02,07,03,16,2.70
2008,02,07,03,17,4.90
2008,02,07,03,18,5.30
2008,02,07,03,19,4.50
2008,02,07,03,20,3.60
2008,02,07,03,21,4.90
2008,02,07,03,22,3.50
2008,02,07,03,23,5.60
2008,02,07,03,24,3.70
2008,02,07,03,25,2.90
2008,02,07,03,26,5.20
2008,02,07,03,27,5.60
2008,02,07,03,28,5.80
2008,02,07,03,29,6.60
2008,02,07,03,30,6.70
2008,02,07,03,31,7.60
2008,02,07,03,32,4.30
2008,02,07,03,33,8.50
2008,02,07,03,34,6.90
2008,02,07,03,35,6.00
2008,02,07,03,36,4.50
2008,02,07,03,37,5.00
2008,02,07,03,38,5.00
2008,02,07,03,39,3.80
2008,02,07,03,40,5.50
2008,02,07,03,41,4.50
2008,02,07,03,42,6.10
2008,02,07,03,43,5.60
2008,02,07,03,44,4.30
2008,02,07,03,45,2.20
2008,02,07,03,46,1.30
2008,02,07,03,47,0.00
2008,02,07,03,48,0.30
2008,02,07,03,49,1.50
2008,02,07,03,50,2.10
2008,02,07,03,51,3.30
2008,02,07,03,52,2.50
2008,02,07,03,53,1.10
2008,02,07,03,54,0.00
2008,02,07,03,55,0.00
2008,02,07,03,56,1.30
2008,02,07,03,57,3.30
2008,02,07,03,58,3.10
2008,02,07,03,59,1.30
2008,02,07,04,00,1.10
2008,02,07,04,01,0.00
2008,02,07,04,02,0.00
2008,02,07,04,03,0.00
2008,02,07,04,04,0.00
2008,02,07,04,05,0.00
2008,02,07,04,06,0.00
2008,02,07,04,07,0.00
2008,02,07,04,08,2.00
2008,02,07,04,09,4.90
2008,02,07,04,10,5.60
2008,02,07,04,11,3.90
2008,02,07,04,12,3.50
2008,02,07,04,13,6.40
2008,02,07,04,14,6.10
2008,02,07,04,15,4.60
2008,02,07,04,16,2.00
2008,02,07,04,17,2.00
2008,02,07,04,18,4.60
2008,02,07,04,19,5.60
2008,02,07,04,20,3.30
2008,02,07,04,21,1.00
2008,02,07,04,22,0.10
2008,02,07,04,23,3.70
2008,02,07,04,24,6.90
2008,02,07,04,25,6.60
2008,02,07,04,26,6.00
2008,02,07,04,27,3.50
2008,02,07,04,28,4.80
2008,02,07,04,29,2.50
2008,02,07,04,30,4.90
2008,02,07,04,31,3.40
2008,02,07,04,32,3.80
2008,02,07,04,33,4.70
2008,02,07,04,34,2.50
2008,02,07,04,35,0.80
2008,02,07,04,36,0.00
2008,02,07,04,37,0.30
2008,02,07,04,38,3.00
2008,02,07,04,39,2.00
2008,02,07,04,40,1.30
2008,02,07,04,41,1.70
2008,02,07,04,42,2.00
2008,02,07,04,43,2.90
2008,02,07,04,44,3.20
2008,02,07,04,45,3.10
2008,02,07,04,46,3.00
2008,02,07,04,47,2.10
2008,02,07,04,48,0.90
2008,02,07,04,49,1.80
2008,02,07,04,50,0.50
2008,02,07,04,51,0.00
2008,02,07,04,52,0.00
2008,02,07,04,53,0.00
2008,02,07,04,54,1.20
2008,02,07,04,55,2.00
2008,02,07,04,56,1.50
2008,02,07,04,57,1.30
2008,02,07,04,58,1.10
2008,02,07,04,59,0.00
2008,02,07,05,00,0.30
2008,02,07,05,01,0.00
2008,02,07,05,02,0.00
2008,02,07,05,03,0.30
2008,02,07,05,04,2.80
2008,02,07,05,05,2.80
2008,02,07,05,06,1.20
2008,02,07,05,07,0.00
2008,02,07,05,08,0.10
2008,02,07,05,09,1.60
2008,02,07,05,10,3.10
2008,02,07,05,11,3.20
2008,02,07,05,12,2.50
2008,02,07,05,13,1.40
2008,02,07,05,14,0.00
2008,02,07,05,15,0.00
2008,02,07,05,16,0.60
2008,02,07,05,17,0.40
2008,02,07,05,18,0.30
2008,02,07,05,19,0.80
2008,02,07,05,20,1.90
2008,02,07,05,21,2.60
2008,02,07,05,22,2.90
2008,02,07,05,23,1.20
2008,02,07,05,24,2.10
2008,02,07,05,25,2.60
2008,02,07,05,26,2.80
2008,02,07,05,27,2.10
2008,02,07,05,28,1.00
2008,02,07,05,29,0.80
2008,02,07,05,30,1.10
2008,02,07,05,31,1.60
2008,02,07,05,32,1.40
2008,02,07,05,33,2.90
2008,02,07,05,34,4.40
2008,02,07,05,35,5.80
2008,02,07,05,36,5.80
2008,02,07,05,37,6.60
2008,02,07,05,38,4.30
2008,02,07,05,39,3.90
2008,02,07,05,40,6.40
2008,02,07,05,41,4.60
2008,02,07,05,42,6.50
2008,02,07,05,43,5.30
2008,02,07,05,44,4.60
2008,02,07,05,45,5.50
2008,02,07,05,46,3.80
2008,02,07,05,47,2.70
2008,02,07,05,48,2.80
2008,02,07,05,49,3.40
2008,02,07,05,50,4.00
2008,02,07,05,51,3.60
2008,02,07,05,52,4.00
2008,02,07,05,53,3.00
2008,02,07,05,54,3.00
2008,02,07,05,55,4.80
2008,02,07,05,56,2.90
2008,02,07,05,57,2.90
2008,02,07,05,58,3.60
2008,02,07,05,59,2.00
2008,02,07,06,00,0.60
2008,02,07,06,01,3.40
2008,02,07,06,02,3.80
2008,02,07,06,03,3.60
2008,02,07,06,04,6.40
2008,02,07,06,05,5.40
2008,02,07,06,06,6.90
2008,02,07,06,07,4.90
2008,02,07,06,08,4.10
2008,02,07,06,09,3.50
2008,02,07,06,10,5.80
2008,02,07,06,11,3.60
2008,02,07,06,12,4.90
2008,02,07,06,13,4.00
2008,02,07,06,14,3.60
2008,02,07,06,15,4.40
2008,02,07,06,16,4.00
2008,02,07,06,17,4.80
2008,02,07,06,18,5.20
2008,02,07,06,19,6.90
2008,02,07,06,20,6.90
2008,02,07,06,21,5.00
2008,02,07,06,22,5.80
2008,02,07,06,23,4.20
2008,02,07,06,24,5.70
2008,02,07,06,25,3.80
2008,02,07,06,26,3.20
2008,02,07,06,27,2.70
2008,02,07,06,28,0.40
2008,02,07,06,29,0.20
2008,02,07,06,30,0.00
2008,02,07,06,31,1.80
2008,02,07,06,32,0.80
2008,02,07,06,33,0.00
2008,02,07,06,34,0.20
2008,02,07,06,35,2.20
2008,02,07,06,36,2.50
2008,02,07,06,37,4.70
2008,02,07,06,38,3.80
2008,02,07,06,39,5.60
2008,02,07,06,40,4.70
2008,02,07,06,41,3.50
2008,02,07,06,42,4.20
2008,02,07,06,43,3.00
2008,02,07,06,44,3.60
2008,02,07,06,45,3.90
2008,02,07,06,46,4.40
2008,02,07,06,47,3.80
2008,02,07,06,48,3.60
2008,02,07,06,49,6.00
2008,02,07,06,50,2.80
2008,02,07,06,51,2.70
2008,02,07,06,52,3.40
2008,02,07,06,53,5.40
2008,02,07,06,54,4.10
2008,02,07,06,55,3.50
2008,02,07,06,56,5.10
2008,02,07,06,57,5.50
2008,02,07,06,58,5.90
2008,02,07,06,59,4.20
2008,02,07,07,00,4.70
2008,02,07,07,01,5.20
2008,02,07,07,02,4.90
2008,02,07,07,03,5.90
2008,02,07,07,04,5.70
2008,02,07,07,05,3.40
2008,02,07,07,06,3.70
2008,02,07,07,07,4.70
2008,02,07,07,08,3.40
2008,02,07,07,09,5.00
2008,02,07,07,10,4.80
2008,02,07,07,11,3.60
2008,02,07,07,12,3.50
2008,02,07,07,13,4.10
2008,02,07,07,14,3.10
2008,02,07,07,15,5.30
2008,02,07,07,16,3.30
2008,02,07,07,17,4.80
2008,02,07,07,18,4.80
2008,02,07,07,19,6.10
2008,02,07,07,20,3.90
2008,02,07,07,21,5.10
2008,02,07,07,22,4.10
2008,02,07,07,23,5.50
2008,02,07,07,24,6.40
2008,02,07,07,25,3.50
2008,02,07,07,26,3.30
2008,02,07,07,27,5.30
2008,02,07,07,28,4.30
2008,02,07,07,29,4.40
2008,02,07,07,30,4.10
2008,02,07,07,31,4.90
2008,02,07,07,32,3.00
2008,02,07,07,33,2.80
2008,02,07,07,34,3.80
2008,02,07,07,35,3.50
2008,02,07,07,36,3.80
2008,02,07,07,37,4.00
2008,02,07,07,38,3.20
2008,02,07,07,39,1.90
2008,02,07,07,40,2.50
2008,02,07,07,41,4.10
2008,02,07,07,42,3.00
2008,02,07,07,43,2.60
2008,02,07,07,44,5.40
2008,02,07,07,45,6.20
2008,02,07,07,46,4.20
2008,02,07,07,47,4.40
2008,02,07,07,48,5.30
2008,02,07,07,49,2.70
2008,02,07,07,50,4.60
2008,02,07,07,51,4.70
2008,02,07,07,52,5.60
2008,02,07,07,53,5.50
2008,02,07,07,54,3.20
2008,02,07,07,55,3.70
2008,02,07,07,56,2.50
2008,02,07,07,57,0.10
2008,02,07,07,58,0.00
2008,02,07,07,59,0.80
2008,02,07,08,00,1.80
2008,02,07,08,01,1.90
2008,02,07,08,02,2.40
2008,02,07,08,03,3.70
2008,02,07,08,04,2.60
2008,02,07,08,05,2.40
2008,02,07,08,06,1.30
2008,02,07,08,07,3.00
2008,02,07,08,08,2.30
2008,02,07,08,09,3.50
2008,02,07,08,10,3.60
2008,02,07,08,11,3.60
2008,02,07,08,12,2.30
2008,02,07,08,13,3.00
2008,02,07,08,14,3.00
2008,02,07,08,15,2.00
2008,02,07,08,16,3.40
2008,02,07,08,17,1.50
2008,02,07,08,18,1.80
2008,02,07,08,19,2.10
2008,02,07,08,20,2.50
2008,02,07,08,21,3.00
2008,02,07,08,22,3.10
2008,02,07,08,23,4.70
2008,02,07,08,24,2.40
2008,02,07,08,25,0.70
2008,02,07,08,26,0.20
2008,02,07,08,27,0.80
2008,02,07,08,28,3.40
2008,02,07,08,29,2.70
2008,02,07,08,30,1.90
2008,02,07,08,31,0.00
2008,02,07,08,32,1.80
2008,02,07,08,33,3.10
2008,02,07,08,34,2.50
2008,02,07,08,35,1.90
2008,02,07,08,36,0.30
2008,02,07,08,37,0.00
2008,02,07,08,38,0.00
2008,02,07,08,39,0.00
2008,02,07,08,40,0.00
2008,02,07,08,41,0.30
2008,02,07,08,42,1.60
2008,02,07,08,43,0.90
2008,02,07,08,44,0.30
2008,02,07,08,45,0.30
2008,02,07,08,46,2.60
2008,02,07,08,47,4.30
2008,02,07,08,48,3.40
2008,02,07,08,49,2.80
2008,02,07,08,50,1.70
2008,02,07,08,51,2.10
2008,02,07,08,52,4.50
2008,02,07,08,53,6.60
2008,02,07,08,54,3.40
2008,02,07,08,55,1.60
2008,02,07,08,56,0.00
2008,02,07,08,57,0.00
2008,02,07,08,58,0.10
2008,02,07,08,59,0.00
2008,02,07,09,00,0.00
2008,02,07,09,01,0.00
2008,02,07,09,02,0.00
2008,02,07,09,03,3.00
2008,02,07,09,04,3.20
2008,02,07,09,05,1.70
2008,02,07,09,06,0.20
2008,02,07,09,07,1.40
2008,02,07,09,08,2.70
2008,02,07,09,09,0.90
2008,02,07,09,10,0.00
2008,02,07,09,11,0.00
2008,02,07,09,12,0.80
2008,02,07,09,13,0.80
2008,02,07,09,14,0.00
2008,02,07,09,15,0.00
2008,02,07,09,16,0.00
2008,02,07,09,17,0.30
2008,02,07,09,18,0.60
2008,02,07,09,19,0.50
2008,02,07,09,20,3.00
2008,02,07,09,21,3.60
2008,02,07,09,22,2.60
2008,02,07,09,23,1.50
2008,02,07,09,24,0.00
2008,02,07,09,25,0.00
2008,02,07,09,26,0.00
2008,02,07,09,27,0.10
2008,02,07,09,28,0.70
2008,02,07,09,29,0.00
2008,02,07,09,30,0.30
2008,02,07,09,31,0.00
2008,02,07,09,32,1.10
2008,02,07,09,33,2.70
2008,02,07,09,34,2.00
2008,02,07,09,35,1.60
2008,02,07,09,36,2.90
2008,02,07,09,37,5.80
2008,02,07,09,38,2.40
2008,02,07,09,39,2.10
2008,02,07,09,40,1.10
2008,02,07,09,41,0.30
2008,02,07,09,42,0.10
2008,02,07,09,43,2.10
2008,02,07,09,44,4.50
2008,02,07,09,45,2.00
2008,02,07,09,46,2.50
2008,02,07,09,47,1.50
2008,02,07,09,48,0.20
2008,02,07,09,49,0.00
2008,02,07,09,50,0.30
2008,02,07,09,51,0.30
2008,02,07,09,52,1.00
2008,02,07,09,53,1.70
2008,02,07,09,54,2.40
2008,02,07,09,55,3.80
2008,02,07,09,56,4.30
2008,02,07,09,57,1.30
2008,02,07,09,58,1.60
2008,02,07,09,59,2.20
2008,02,07,10,00,0.40
2008,02,07,10,01,0.10
2008,02,07,10,02,0.50
2008,02,07,10,03,0.00
2008,02,07,10,04,0.60
2008,02,07,10,05,2.50
2008,02,07,10,06,1.90
2008,02,07,10,07,1.50
2008,02,07,10,08,1.00
2008,02,07,10,09,1.60
2008,02,07,10,10,2.40
2008,02,07,10,11,2.70
2008,02,07,10,12,2.00
2008,02,07,10,13,4.10
2008,02,07,10,14,4.60
2008,02,07,10,15,2.20
2008,02,07,10,16,1.40
2008,02,07,10,17,0.90
2008,02,07,10,18,1.90
2008,02,07,10,19,4.40
2008,02,07,10,20,2.80
2008,02,07,10,21,0.70
2008,02,07,10,22,0.00
2008,02,07,10,23,4.80
2008,02,07,10,24,5.50
2008,02,07,10,25,3.00
2008,02,07,10,26,2.10
2008,02,07,10,27,6.60
2008,02,07,10,28,3.00
2008,02,07,10,29,1.90
2008,02,07,10,30,5.20
2008,02,07,10,31,1.00
2008,02,07,10,32,1.60
2008,02,07,10,33,3.00
2008,02,07,10,34,2.70
2008,02,07,10,35,3.00
2008,02,07,10,36,2.90
2008,02,07,10,37,1.10
2008,02,07,10,38,0.80
2008,02,07,10,39,2.60
2008,02,07,10,40,1.00
2008,02,07,10,41,0.60
2008,02,07,10,42,1.00
2008,02,07,10,43,0.00
2008,02,07,10,44,0.00
2008,02,07,10,45,0.00
2008,02,07,10,46,0.40
2008,02,07,10,47,1.40
2008,02,07,10,48,1.70
2008,02,07,10,49,0.20
2008,02,07,10,50,1.50
2008,02,07,10,51,1.90
2008,02,07,10,52,6.40
2008,02,07,10,53,5.80
2008,02,07,10,54,5.30
2008,02,07,10,55,4.20
2008,02,07,10,56,1.90
2008,02,07,10,57,0.10
2008,02,07,10,58,0.00
2008,02,07,10,59,0.00
2008,02,07,11,00,0.00
2008,02,07,11,01,0.30
2008,02,07,11,02,1.70
2008,02,07,11,03,0.10
2008,02,07,11,04,0.00
2008,02,07,11,05,0.00
2008,02,07,11,06,0.70
2008,02,07,11,07,0.90
2008,02,07,11,08,0.10
2008,02,07,11,09,0.90
2008,02,07,11,10,1.00
2008,02,07,11,11,4.60
2008,02,07,11,12,4.50
2008,02,07,11,13,4.20
2008,02,07,11,14,2.40
2008,02,07,11,15,4.30
2008,02,07,11,16,1.80
2008,02,07,11,17,0.60
2008,02,07,11,18,0.40
2008,02,07,11,19,0.50
2008,02,07,11,20,0.40
2008,02,07,11,21,2.10
2008,02,07,11,22,7.20
2008,02,07,11,23,5.30
2008,02,07,11,24,1.70
2008,02,07,11,25,0.30
2008,02,07,11,26,0.00
2008,02,07,11,27,0.70
2008,02,07,11,28,4.20
2008,02,07,11,29,5.70
2008,02,07,11,30,6.70
2008,02,07,11,31,9.30
2008,02,07,11,32,5.30
2008,02,07,11,33,3.00
2008,02,07,11,34,1.50
2008,02,07,11,35,2.50
2008,02,07,11,36,6.00
2008,02,07,11,37,6.20
2008,02,07,11,38,7.10
2008,02,07,11,39,10.30
2008,02,07,11,40,11.60
2008,02,07,11,41,12.00
2008,02,07,11,42,6.90
2008,02,07,11,43,4.90
2008,02,07,11,44,5.80
2008,02,07,11,45,5.80
2008,02,07,11,46,5.50
2008,02,07,11,47,0.80
2008,02,07,11,48,3.30
2008,02,07,11,49,0.90
2008,02,07,11,50,3.00
2008,02,07,11,51,7.80
2008,02,07,11,52,9.10
2008,02,07,11,53,14.10
2008,02,07,11,54,9.50
2008,02,07,11,55,7.10
2008,02,07,11,56,5.90
2008,02,07,11,57,13.30
2008,02,07,11,58,4.60
2008,02,07,11,59,10.00
2008,02,07,12,00,9.70
2008,02,07,12,01,6.20
2008,02,07,12,02,7.00
2008,02,07,12,03,12.10
2008,02,07,12,04,6.40
2008,02,07,12,05,5.10
2008,02,07,12,06,4.40
2008,02,07,12,07,2.10
2008,02,07,12,08,5.30
2008,02,07,12,09,4.10
2008,02,07,12,10,4.10
2008,02,07,12,11,2.60
2008,02,07,12,12,2.60
2008,02,07,12,13,7.60
2008,02,07,12,14,5.70
2008,02,07,12,15,8.80
2008,02,07,12,16,4.60
2008,02,07,12,17,1.50
2008,02,07,12,18,5.60
2008,02,07,12,19,7.40
2008,02,07,12,20,7.40
2008,02,07,12,21,0.80
2008,02,07,12,22,1.30
2008,02,07,12,23,0.20
2008,02,07,12,24,3.70
2008,02,07,12,25,3.50
2008,02,07,12,26,4.70
2008,02,07,12,27,3.60
2008,02,07,12,28,4.00
2008,02,07,12,29,6.40
2008,02,07,12,30,8.60
2008,02,07,12,31,10.80
2008,02,07,12,32,8.50
2008,02,07,12,33,3.40
2008,02,07,12,34,6.50
2008,02,07,12,35,6.50
2008,02,07,12,36,1.30
2008,02,07,12,37,0.40
2008,02,07,12,38,1.00
2008,02,07,12,39,1.40
2008,02,07,12,40,0.00
2008,02,07,12,41,1.60
2008,02,07,12,42,2.80
2008,02,07,12,43,3.30
2008,02,07,12,44,4.40
2008,02,07,12,45,7.10
2008,02,07,12,46,3.50
2008,02,07,12,47,1.70
2008,02,07,12,48,0.40
2008,02,07,12,49,1.40
2008,02,07,12,50,2.10
2008,02,07,12,51,0.50
2008,02,07,12,52,6.40
2008,02,07,12,53,7.20
2008,02,07,12,54,4.30
2008,02,07,12,55,2.20
2008,02,07,12,56,7.40
2008,02,07,12,57,5.40
2008,02,07,12,58,3.30
2008,02,07,12,59,0.80
2008,02,07,13,00,0.70
2008,02,07,13,01,5.30
2008,02,07,13,02,3.50
2008,02,07,13,03,4.20
2008,02,07,13,04,4.60
2008,02,07,13,05,6.60
2008,02,07,13,06,7.70
2008,02,07,13,07,4.10
2008,02,07,13,08,5.00
2008,02,07,13,09,6.90
2008,02,07,13,10,8.70
2008,02,07,13,11,12.60
2008,02,07,13,12,9.80
2008,02,07,13,13,8.50
2008,02,07,13,14,7.80
2008,02,07,13,15,7.10
2008,02,07,13,16,9.30
2008,02,07,13,17,10.20
2008,02,07,13,18,6.50
2008,02,07,13,19,10.20
2008,02,07,13,20,8.00
2008,02,07,13,21,11.80
2008,02,07,13,22,7.40
2008,02,07,13,23,6.50
2008,02,07,13,24,4.00
2008,02,07,13,25,5.60
2008,02,07,13,26,5.40
2008,02,07,13,27,2.00
2008,02,07,13,28,7.70
2008,02,07,13,29,5.60
2008,02,07,13,30,5.70
2008,02,07,13,31,8.40
2008,02,07,13,32,6.40
2008,02,07,13,33,5.80
2008,02,07,13,34,3.80
2008,02,07,13,35,2.90
2008,02,07,13,36,2.00
2008,02,07,13,37,0.30
2008,02,07,13,38,1.40
2008,02,07,13,39,6.10
2008,02,07,13,40,5.00
2008,02,07,13,41,4.40
2008,02,07,13,42,5.30
2008,02,07,13,43,4.40
2008,02,07,13,44,5.40
2008,02,07,13,45,4.10
2008,02,07,13,46,3.80
2008,02,07,13,47,5.60
2008,02,07,13,48,7.50
2008,02,07,13,49,0.60
2008,02,07,13,50,2.50
2008,02,07,13,51,4.20
2008,02,07,13,52,2.10
2008,02,07,13,53,2.70
2008,02,07,13,54,1.50
2008,02,07,13,55,5.60
2008,02,07,13,56,5.90
2008,02,07,13,57,5.60
2008,02,07,13,58,0.60
2008,02,07,13,59,0.30
2008,02,07,14,00,1.20
2008,02,07,14,01,0.70
2008,02,07,14,02,3.30
2008,02,07,14,03,2.20
2008,02,07,14,04,1.80
2008,02,07,14,05,5.30
2008,02,07,14,06,3.90
2008,02,07,14,07,1.10
2008,02,07,14,08,1.20
2008,02,07,14,09,2.00
2008,02,07,14,10,1.90
2008,02,07,14,11,4.10
2008,02,07,14,12,1.70
2008,02,07,14,13,0.30
2008,02,07,14,14,1.10
2008,02,07,14,15,3.10
2008,02,07,14,16,6.40
2008,02,07,14,17,5.30
2008,02,07,14,18,5.20
2008,02,07,14,19,1.80
2008,02,07,14,20,8.50
2008,02,07,14,21,8.10
2008,02,07,14,22,1.00
2008,02,07,14,23,1.30
2008,02,07,14,24,4.50
2008,02,07,14,25,3.90
2008,02,07,14,26,3.40
2008,02,07,14,27,4.40
2008,02,07,14,28,7.60
2008,02,07,14,29,7.30
2008,02,07,14,30,8.40
2008,02,07,14,31,9.60
2008,02,07,14,32,7.90
2008,02,07,14,33,2.20
2008,02,07,14,34,4.80
2008,02,07,14,35,9.20
2008,02,07,14,36,9.20
2008,02,07,14,37,4.20
2008,02,07,14,38,7.50
2008,02,07,14,39,8.50
2008,02,07,14,40,7.00
2008,02,07,14,41,3.40
2008,02,07,14,42,8.00
2008,02,07,14,43,9.30
2008,02,07,14,44,9.80
2008,02,07,14,45,8.50
2008,02,07,14,46,6.60
2008,02,07,14,47,6.30
2008,02,07,14,48,6.70
2008,02,07,14,49,11.80
2008,02,07,14,50,9.80
2008,02,07,14,51,7.50
2008,02,07,14,52,4.90
2008,02,07,14,53,4.40
2008,02,07,14,54,4.90
2008,02,07,14,55,4.30
2008,02,07,14,56,5.50
2008,02,07,14,57,10.80
2008,02,07,14,58,13.60
2008,02,07,14,59,7.90
2008,02,07,15,00,11.20
2008,02,07,15,01,12.70
2008,02,07,15,02,3.40
2008,02,07,15,03,7.30
2008,02,07,15,04,10.00
2008,02,07,15,05,10.60
2008,02,07,15,06,6.30
2008,02,07,15,07,2.90
2008,02,07,15,08,4.30
2008,02,07,15,09,6.30
2008,02,07,15,10,16.50
2008,02,07,15,11,9.50
2008,02,07,15,12,6.50
2008,02,07,15,13,4.20
2008,02,07,15,14,7.90
2008,02,07,15,15,11.00
2008,02,07,15,16,9.70
2008,02,07,15,17,12.40
2008,02,07,15,18,4.70
2008,02,07,15,19,11.40
2008,02,07,15,20,14.90
2008,02,07,15,21,5.80
2008,02,07,15,22,9.50
2008,02,07,15,23,9.00
2008,02,07,15,24,10.30
2008,02,07,15,25,10.80
2008,02,07,15,26,6.60
2008,02,07,15,27,8.70
2008,02,07,15,28,9.40
2008,02,07,15,29,7.10
2008,02,07,15,30,10.80
2008,02,07,15,31,10.00
2008,02,07,15,32,9.60
2008,02,07,15,33,4.70
2008,02,07,15,34,2.50
2008,02,07,15,35,6.00
2008,02,07,15,36,8.60
2008,02,07,15,37,14.00
2008,02,07,15,38,9.20
2008,02,07,15,39,9.70
2008,02,07,15,40,7.00
2008,02,07,15,41,11.60
2008,02,07,15,42,9.70
2008,02,07,15,43,10.30
2008,02,07,15,44,6.60
2008,02,07,15,45,9.70
2008,02,07,15,46,14.70
2008,02,07,15,47,13.50
2008,02,07,15,48,10.30
2008,02,07,15,49,12.10
2008,02,07,15,50,8.30
2008,02,07,15,51,3.10
2008,02,07,15,52,8.80
2008,02,07,15,53,12.50
2008,02,07,15,54,11.00
2008,02,07,15,55,13.30
2008,02,07,15,56,14.00
2008,02,07,15,57,6.50
2008,02,07,15,58,9.70
2008,02,07,15,59,9.60
2008,02,07,16,00,9.30
2008,02,07,16,01,11.90
2008,02,07,16,02,14.60
2008,02,07,16,03,10.90
2008,02,07,16,04,9.70
2008,02,07,16,05,10.10
2008,02,07,16,06,10.30
2008,02,07,16,07,18.10
2008,02,07,16,08,7.50
2008,02,07,16,09,10.20
2008,02,07,16,10,14.80
2008,02,07,16,11,11.90
2008,02,07,16,12,10.70
2008,02,07,16,13,5.60
2008,02,07,16,14,5.60
2008,02,07,16,15,5.40
2008,02,07,16,16,8.60
2008,02,07,16,17,5.60
2008,02,07,16,18,13.20
2008,02,07,16,19,11.00
2008,02,07,16,20,12.50
2008,02,07,16,21,13.00
2008,02,07,16,22,11.40
2008,02,07,16,23,9.80
2008,02,07,16,24,13.40
2008,02,07,16,25,14.30
2008,02,07,16,26,8.70
2008,02,07,16,27,11.90
2008,02,07,16,28,8.40
2008,02,07,16,29,9.10
2008,02,07,16,30,10.30
2008,02,07,16,31,12.90
2008,02,07,16,32,9.40
2008,02,07,16,33,9.10
2008,02,07,16,34,8.70
2008,02,07,16,35,7.60
2008,02,07,16,36,9.00
2008,02,07,16,37,7.90
2008,02,07,16,38,6.60
2008,02,07,16,39,7.20
2008,02,07,16,40,10.10
2008,02,07,16,41,8.60
2008,02,07,16,42,11.30
2008,02,07,16,43,16.90
2008,02,07,16,44,3.90
2008,02,07,16,45,3.50
2008,02,07,16,46,9.30
2008,02,07,16,47,7.30
2008,02,07,16,48,3.80
2008,02,07,16,49,8.80
2008,02,07,16,50,8.70
2008,02,07,16,51,1.10
2008,02,07,16,52,7.80
2008,02,07,16,53,10.10
2008,02,07,16,54,7.80
2008,02,07,16,55,4.10
2008,02,07,16,56,5.20
2008,02,07,16,57,13.00
2008,02,07,16,58,11.10
2008,02,07,16,59,5.70
2008,02,07,17,00,11.10
2008,02,07,17,01,7.80
2008,02,07,17,02,7.40
2008,02,07,17,03,7.80
2008,02,07,17,04,11.80
2008,02,07,17,05,4.30
2008,02,07,17,06,11.30
2008,02,07,17,07,10.30
2008,02,07,17,08,16.30
2008,02,07,17,09,13.10
2008,02,07,17,10,7.30
2008,02,07,17,11,12.80
2008,02,07,17,12,8.60
2008,02,07,17,13,6.90
2008,02,07,17,14,5.80
2008,02,07,17,15,10.60
2008,02,07,17,16,8.60
2008,02,07,17,17,8.00
2008,02,07,17,18,8.50
2008,02,07,17,19,7.50
2008,02,07,17,20,8.10
2008,02,07,17,21,7.20
2008,02,07,17,22,4.50
2008,02,07,17,23,2.60
2008,02,07,17,24,2.80
2008,02,07,17,25,6.70
2008,02,07,17,26,2.80
2008,02,07,17,27,13.10
2008,02,07,17,28,10.80
2008,02,07,17,29,9.40
2008,02,07,17,30,7.70
2008,02,07,17,31,7.70
2008,02,07,17,32,6.80
2008,02,07,17,33,13.00
2008,02,07,17,34,14.80
2008,02,07,17,35,9.50
2008,02,07,17,36,8.60
2008,02,07,17,37,8.80
2008,02,07,17,38,2.60
2008,02,07,17,39,3.40
2008,02,07,17,40,12.50
2008,02,07,17,41,6.80
2008,02,07,17,42,11.10
2008,02,07,17,43,2.30
2008,02,07,17,44,4.60
2008,02,07,17,45,3.60
2008,02,07,17,46,1.10
2008,02,07,17,47,0.50
2008,02,07,17,48,1.50
2008,02,07,17,49,0.30
2008,02,07,17,50,0.40
2008,02,07,17,51,7.30
2008,02,07,17,52,8.90
2008,02,07,17,53,7.00
2008,02,07,17,54,6.40
2008,02,07,17,55,4.70
2008,02,07,17,56,1.30
2008,02,07,17,57,3.30
2008,02,07,17,58,0.60
2008,02,07,17,59,6.40
2008,02,07,18,00,9.10
2008,02,07,18,01,8.10